Location: Rodanthe
(35.5920°N, 75.4670°W)
Time: 09:06:42
(UTC-04:00)

ISS - All Passes

Search period start: 30 April 2016 00:00
Search period end: 10 May 2016 00:00
Orbit: 402 x 405 km, 51.6° (Epoch: 29 April)

Date Brightness Start Highest point End Pass type
(mag) Time Alt. Az. Time Alt. Az. Time Alt. Az.
30 Apr - 08:18:33 10° SW 08:21:48 79° SE 08:25:04 10° NE daylight
30 Apr - 09:56:52 10° WNW 09:58:37 14° NNW 10:00:23 10° N daylight
30 Apr - 14:49:01 10° NNW 14:51:48 25° NNE 14:54:34 10° E daylight
30 Apr - 16:25:24 10° WNW 16:28:13 27° SW 16:31:02 10° S daylight
01 May - 07:26:26 10° SSW 07:29:25 34° SE 07:32:25 10° ENE daylight
01 May - 09:03:21 10° W 09:05:56 21° NNW 09:08:32 10° NNE daylight
01 May - 13:57:03 10° NNW 13:59:08 16° NNE 14:01:13 10° ENE daylight
01 May - 15:32:38 10° NW 15:35:52 60° SW 15:39:04 10° SE daylight
02 May - 06:34:57 10° S 06:37:06 17° SE 06:39:16 10° E daylight
02 May - 08:10:16 10° WSW 08:13:20 37° NW 08:16:25 10° NNE daylight
02 May - 13:05:43 10° N 13:06:23 10° NNE 13:07:03 10° NE daylight
02 May - 14:40:10 10° NW 14:43:24 60° NE 14:46:38 10° ESE daylight
02 May - 16:19:05 10° WSW 16:19:27 10° SW 16:19:50 10° SW daylight
03 May - 07:17:33 10° SW 07:20:49 80° NW 07:24:04 10° NE daylight
03 May - 08:56:22 10° NW 08:57:44 12° NNW 08:59:05 10° N daylight
03 May - 13:47:54 10° NNW 13:50:51 30° NE 13:53:47 10° E daylight
03 May - 15:24:37 10° WNW 15:27:11 21° SW 15:29:43 10° S daylight
04 May - 06:25:15 10° SSW 06:28:22 45° SE 06:31:31 10° ENE daylight
04 May - 08:02:37 10° WNW 08:04:59 18° NNW 08:07:22 10° NNE daylight
04 May - 12:55:51 10° NNW 12:58:12 18° NNE 13:00:33 10° ENE daylight
04 May - 14:31:40 10° WNW 14:34:49 45° SW 14:37:56 10° SSE daylight
05 May - 05:33:28 10° S 05:36:01 21° SE 05:38:32 10° ENE visible
05 May - 07:09:23 10° W 07:12:19 31° NW 07:15:17 10° NNE daylight
05 May - 12:04:07 10° N 12:05:26 12° NNE 12:06:45 10° NE daylight
05 May - 13:39:06 10° NW 13:42:22 78° NE 13:45:37 10° SE daylight
06 May - 06:16:31 10° WSW 06:19:45 61° NW 06:22:59 10° NE daylight
06 May - 07:56:01 10° NW 07:56:45 11° NNW 07:57:30 10° N daylight
06 May - 12:46:44 10° NNW 12:49:48 37° NE 12:52:52 10° ESE daylight
06 May - 14:23:51 10° W 14:26:02 17° SW 14:28:13 10° S daylight
07 May - 05:24:02 10° SW 05:27:14 59° SE 05:30:28 10° NE visible
07 May - 07:01:51 10° WNW 07:03:58 16° NNW 07:06:04 10° NNE daylight
07 May - 11:54:34 10° NNW 11:57:09 21° NNE 11:59:43 10° E daylight
07 May - 13:30:39 10° WNW 13:33:40 35° SW 13:36:40 10° SSE daylight
08 May - 04:32:02 10° S 04:34:49 26° SE 04:37:37 10° ENE visible
08 May - 06:08:27 10° W 06:11:14 26° NW 06:14:02 10° NNE daylight
08 May - 11:02:39 10° N 11:04:24 14° NNE 11:06:07 10° ENE daylight
08 May - 12:37:57 10° NW 12:41:13 81° SW 12:44:28 10° SE daylight
09 May - 03:40:56 10° SSE 03:42:29 13° SE 03:44:01 10° E visible
09 May - 05:15:26 10° WSW 05:18:36 48° NW 05:21:47 10° NE visible
09 May - 11:45:30 10° NW 11:48:40 46° NE 11:51:49 10° ESE daylight
09 May - 13:23:09 10° W 13:24:48 13° SW 13:26:27 10° SSW daylight
